Oak Island, NC

9:58 AM EST on December 07, 2016 (GMT -0500)
Brunswick County

Weather History for KSUT - April, 2014

Change the Weather History Date:

Thursday, April 17, 2014

  Actual Average (KILM) Record (KILM)
Temperature  
Mean Temperature 52 °F 63 °F  
Max Temperature 66 °F 75 °F 89 °F (2006)
Min Temperature 39 °F 52 °F 34 °F (2009)
Degree Days  
Heating Degree Days 12 4  
Month to date heating degree days 93  
Since 1 July heating degree days 2345  
Cooling Degree Days 0 2  
Month to date cooling degree days 28  
Year to date cooling degree days 49  
Growing Degree Days 2 (Base 50)    
Moisture  
Dew Point 40 °F    
Average Humidity 63    
Maximum Humidity 76    
Minimum Humidity 45    
Precipitation  
Precipitation 0.00 in 0.09 in 1.82 in (1946)
Month to date precipitation 1.60  
Year to date precipitation 13.19  
Snow  
Snow 0.00 in 0.00 in - ()
Month to date snowfall 0.0  
Since 1 July snowfall 1.7  
Snow Depth -    
Sea Level Pressure  
Sea Level Pressure 30.41 in    
Wind  
Wind Speed 10 mph (NE)    
Max Wind Speed 14 mph    
Max Gust Speed 20 mph    
Visibility 10 miles    
Events      
T = Trace of Precipitation, MM = Missing Value Source: NWS Daily Summary

Daily Weather History Graph

Daily Weather History Graph

Search for Another Location

Airport or City:

Trip Planner

Search our weather history database for the weather conditions in past years. The results will help you decide how hot, cold, wet, or windy it might be!

Date:

Astronomy

Apr. 17, 2014 Rise Set
Actual Time 6:39 AM EDT 7:45 PM EDT
Civil Twilight 6:13 AM EDT 8:11 PM EDT
Nautical Twilight 5:42 AM EDT 8:41 PM EDT
Astronomical Twilight 5:10 AM EDT 9:13 PM EDT
Moon 10:23 PM EDT (4/17) 8:14 AM EDT (4/17)
Length of Visible Light 13h 57m
Length of Day
13h 06m
Waning Gibbous, 94% of the Moon is Illuminated
Apr 17
Waning Gibbous
Apr 22
Last Quarter
Apr 29
New
May 6
First Quarter
May 14
Full

Hourly Weather History & Observations

Time (EDT) Temp. Windchill Dew Point Humidity Pressure Visibility Wind Dir Wind Speed Gust Speed Precip Events Conditions
12:15 AM 46.6 °F - 33.3 °F 60% 30.42 in 10.0 mi NNE 9.2 mph 17.3 mph N/A   Clear
12:35 AM 45.9 °F 40.8 °F 32.2 °F 59% 30.41 in 10.0 mi NNE 10.4 mph - N/A   Clear
12:55 AM 45.0 °F 40.6 °F 30.2 °F 56% 30.41 in 10.0 mi NNE 8.1 mph - N/A   Clear
1:15 AM 43.9 °F 38.3 °F 29.1 °F 56% 30.40 in 10.0 mi NNE 10.4 mph 18.4 mph N/A   Clear
1:35 AM 43.0 °F 37.7 °F 26.2 °F 52% 30.41 in 10.0 mi NNE 9.2 mph 17.3 mph N/A   Clear
1:55 AM 42.3 °F 36.8 °F 25.7 °F 52% 30.40 in 10.0 mi NNE 9.2 mph - N/A   Clear
2:15 AM 41.9 °F 36.3 °F 25.9 °F 53% 30.40 in 10.0 mi NNE 9.2 mph - N/A   Clear
2:35 AM 41.0 °F 36.4 °F 26.8 °F 57% 30.40 in 10.0 mi NNE 6.9 mph - N/A   Clear
2:55 AM 41.0 °F 35.2 °F 27.9 °F 60% 30.39 in 10.0 mi NNE 9.2 mph - N/A   Clear
3:15 AM 40.5 °F 35.1 °F 29.1 °F 64% 30.39 in 10.0 mi North 8.1 mph - N/A   Clear
3:35 AM 40.1 °F 33.2 °F 30.0 °F 67% 30.39 in 10.0 mi NNE 11.5 mph - N/A   Clear
3:55 AM 40.1 °F 32.7 °F 30.0 °F 67% 30.39 in 10.0 mi North 12.7 mph - N/A   Clear
4:15 AM 39.6 °F 33.0 °F 30.0 °F 69% 30.39 in 10.0 mi NNE 10.4 mph - N/A   Clear
4:35 AM 39.4 °F 32.7 °F 30.0 °F 69% 30.39 in 10.0 mi North 10.4 mph - N/A   Clear
4:55 AM 39.4 °F 31.4 °F 30.2 °F 70% 30.39 in 10.0 mi North 13.8 mph - N/A   Clear
5:15 AM 39.2 °F 32.0 °F 30.9 °F 72% 30.39 in 10.0 mi North 11.5 mph 16.1 mph N/A   Clear
5:35 AM 39.2 °F 32.5 °F 31.5 °F 74% 30.39 in 10.0 mi North 10.4 mph 16.1 mph N/A   Clear
5:55 AM 39.2 °F 32.5 °F 32.0 °F 75% 30.39 in 10.0 mi North 10.4 mph - N/A   Clear
6:15 AM 39.2 °F 32.5 °F 32.0 °F 75% 30.39 in 10.0 mi NNE 10.4 mph - N/A   Clear
6:35 AM 39.2 °F 33.0 °F 32.4 °F 76% 30.39 in 10.0 mi NNE 9.2 mph - N/A   Clear
6:55 AM 39.2 °F 32.5 °F 32.4 °F 76% 30.40 in 10.0 mi NNE 10.4 mph 16.1 mph N/A   Clear
7:15 AM 39.4 °F 32.7 °F 32.4 °F 76% 30.42 in 10.0 mi NNE 10.4 mph - N/A   Clear
7:35 AM 40.1 °F 34.7 °F 32.5 °F 74% 30.42 in 10.0 mi NNE 8.1 mph 16.1 mph N/A   Clear
7:55 AM 41.2 °F 34.5 °F 32.9 °F 72% 30.42 in 10.0 mi NNE 11.5 mph 17.3 mph N/A   Clear
8:15 AM 42.6 °F 36.3 °F 33.6 °F 70% 30.43 in 10.0 mi NNE 11.5 mph 16.1 mph N/A   Clear
8:35 AM 44.1 °F 38.1 °F 34.3 °F 69% 30.44 in 10.0 mi NNE 11.5 mph 18.4 mph N/A   Clear
8:55 AM 46.0 °F 40.2 °F 35.2 °F 66% 30.44 in 10.0 mi NNE 12.7 mph - N/A   Clear
9:15 AM 48.2 °F - 36.3 °F 63% 30.44 in 10.0 mi NE 9.2 mph - N/A   Clear
9:35 AM 49.5 °F - 37.4 °F 63% 30.45 in 10.0 mi NNE 9.2 mph - N/A   Clear
9:55 AM 51.3 °F - 38.5 °F 62% 30.45 in 10.0 mi NE 10.4 mph - N/A   Clear
10:15 AM 53.1 °F - 39.6 °F 60% 30.47 in 10.0 mi NNE 11.5 mph - N/A   Clear
10:35 AM 54.0 °F - 40.3 °F 60% 30.47 in 10.0 mi NNE 9.2 mph - N/A   Clear
10:55 AM 56.5 °F - 41.7 °F 58% 30.47 in 10.0 mi NNE 9.2 mph - N/A   Clear
11:15 AM 58.3 °F - 42.1 °F 55% 30.47 in 10.0 mi North 10.4 mph 17.3 mph N/A   Clear
11:35 AM 59.9 °F - 43.2 °F 54% 30.46 in 10.0 mi North 12.7 mph - N/A   Clear
11:55 AM 60.6 °F - 43.2 °F 53% 30.46 in 10.0 mi NE 11.5 mph - N/A   Clear
12:15 PM 61.7 °F - 43.9 °F 52% 30.45 in 10.0 mi NNE 9.2 mph - N/A   Clear
12:35 PM 63.5 °F - 44.4 °F 50% 30.45 in 10.0 mi ENE 10.4 mph 16.1 mph N/A   Clear
12:55 PM 63.5 °F - 43.7 °F 48% 30.44 in 10.0 mi NE 10.4 mph 18.4 mph N/A   Clear
1:15 PM 63.3 °F - 43.9 °F 49% 30.44 in 10.0 mi NE 6.9 mph 18.4 mph N/A   Clear
1:35 PM 64.9 °F - 44.6 °F 48% 30.44 in 10.0 mi NE 12.7 mph 16.1 mph N/A   Clear
1:55 PM 64.8 °F - 44.2 °F 47% 30.44 in 10.0 mi NE 10.4 mph 18.4 mph N/A   Clear
2:15 PM 65.8 °F - 45.9 °F 48% 30.43 in 10.0 mi NE 10.4 mph 16.1 mph N/A   Clear
2:35 PM 66.2 °F - 45.1 °F 47% 30.43 in 10.0 mi NE 10.4 mph 16.1 mph N/A   Clear
2:55 PM 66.2 °F - 45.1 °F 47% 30.43 in 10.0 mi NE 11.5 mph 17.3 mph N/A   Clear
3:15 PM 66.6 °F - 44.8 °F 45% 30.42 in 10.0 mi ENE 11.5 mph 16.1 mph N/A   Clear
3:35 PM 66.2 °F - 44.6 °F 46% 30.41 in 10.0 mi NE 11.5 mph 19.6 mph N/A   Clear
3:55 PM 65.7 °F - 45.3 °F 48% 30.41 in 10.0 mi NE 10.4 mph 17.3 mph N/A   Clear
4:15 PM 65.8 °F - 46.8 °F 50% 30.41 in 10.0 mi ENE 10.4 mph 16.1 mph N/A   Clear
4:35 PM 65.5 °F - 46.8 °F 51% 30.39 in 10.0 mi NE 9.2 mph - N/A   Clear
4:55 PM 65.3 °F - 47.5 °F 52% 30.39 in 10.0 mi ENE 8.1 mph - N/A   Clear
5:15 PM 64.4 °F - 47.3 °F 54% 30.40 in 10.0 mi NE 12.7 mph 18.4 mph N/A   Clear
5:35 PM 63.5 °F - 48.7 °F 59% 30.39 in 10.0 mi East 10.4 mph 19.6 mph N/A   Clear
5:55 PM 63.1 °F - 48.6 °F 59% 30.39 in 10.0 mi NE 10.4 mph - N/A   Clear
6:15 PM 61.9 °F - 48.7 °F 62% 30.38 in 10.0 mi ENE 11.5 mph 17.3 mph N/A   Clear
6:35 PM 61.9 °F - 49.1 °F 63% 30.38 in 10.0 mi NE 8.1 mph - N/A   Clear
6:55 PM 60.6 °F - 48.9 °F 65% 30.37 in 10.0 mi ENE 8.1 mph - N/A   Clear
7:15 PM 59.4 °F - 49.5 °F 70% 30.37 in 10.0 mi ENE 9.2 mph 18.4 mph N/A   Clear
7:35 PM 58.1 °F - 49.5 °F 73% 30.39 in 10.0 mi ENE 6.9 mph - N/A   Clear
7:55 PM 57.4 °F - 49.3 °F 74% 30.39 in 10.0 mi ENE 6.9 mph - N/A   Clear
8:15 PM 57.0 °F - 49.1 °F 75% 30.39 in 10.0 mi ENE 5.8 mph - N/A   Clear
8:35 PM 56.8 °F - 49.1 °F 75% 30.40 in 10.0 mi NE 6.9 mph - N/A   Clear
8:55 PM 56.5 °F - 49.1 °F 76% 30.39 in 10.0 mi ENE 5.8 mph - N/A   Clear
9:15 PM 56.7 °F - 49.3 °F 76% 30.39 in 10.0 mi ENE 8.1 mph - N/A   Clear
9:35 PM 56.5 °F - 48.9 °F 76% 30.40 in 10.0 mi ENE 10.4 mph 16.1 mph N/A   Clear
9:55 PM 56.3 °F - 48.6 °F 75% 30.41 in 10.0 mi NE 9.2 mph - N/A   Clear
10:15 PM 56.1 °F - 48.2 °F 75% 30.41 in 10.0 mi NE 5.8 mph - N/A   Clear
10:35 PM 55.9 °F - 47.8 °F 74% 30.41 in 10.0 mi NE 6.9 mph - N/A   Clear
10:55 PM 55.2 °F - 46.9 °F 74% 30.41 in 10.0 mi NE 6.9 mph - N/A   Clear
11:15 PM 54.7 °F - 46.4 °F 74% 30.41 in 10.0 mi NNE 6.9 mph - N/A   Clear
11:35 PM 54.0 °F - 46.0 °F 75% 30.40 in 10.0 mi NE 6.9 mph - N/A   Clear
11:55 PM 53.4 °F - 45.7 °F 75% 30.40 in 10.0 mi NNE 5.8 mph - N/A   Clear